Time,TemperatureF,DewpointF,PressureIn,WindDirection,WindDirectionDegrees,WindSpeedMPH,WindSpeedGustMPH,Humidity,HourlyPrecipIn,Conditions,Clouds,dailyrainin,SoftwareType,DateUTC
2013-01-05 00:00:00,21.7,17.6,30.36,SSW,207,6.0,6.0,84,0.00,,,0.00,Wunderground v.1.15,2013-01-05 05:00:00,
2013-01-05 00:01:00,21.7,17.6,30.36,SSW,198,5.0,6.0,84,0.00,,,0.00,Wunderground v.1.15,2013-01-05 05:01:00,
2013-01-05 00:04:00,21.4,17.3,30.36,SSW,210,5.0,6.0,84,0.00,,,0.00,Wunderground v.1.15,2013-01-05 05:04:00,
2013-01-05 00:09:00,21.3,17.5,30.36,SW,227,5.0,6.0,85,0.00,,,0.00,Wunderground v.1.15,2013-01-05 05:09:00,
2013-01-05 00:15:00,21.2,17.4,30.36,SW,236,5.0,6.0,85,0.00,,,0.00,Wunderground v.1.15,2013-01-05 05:15:00,
2013-01-05 00:21:00,21.5,17.7,30.36,SSW,201,5.0,5.0,85,0.00,,,0.00,Wunderground v.1.15,2013-01-05 05:21:00,
2013-01-05 00:26:00,21.6,17.8,30.36,SSW,200,5.0,7.0,85,0.00,,,0.00,Wunderground v.1.15,2013-01-05 05:26:00,
2013-01-05 00:32:00,21.8,18.3,30.36,SW,235,5.0,10.0,86,0.00,,,0.00,Wunderground v.1.15,2013-01-05 05:32:00,
2013-01-05 00:38:00,21.9,18.1,30.36,SW,233,5.0,10.0,85,0.00,,,0.00,Wunderground v.1.15,2013-01-05 05:38:00,
2013-01-05 00:43:00,21.9,18.1,30.36,SW,227,4.0,10.0,85,0.00,,,0.00,Wunderground v.1.15,2013-01-05 05:43:00,
2013-01-05 00:49:00,21.7,17.9,30.36,SW,224,4.0,10.0,85,0.00,,,0.00,Wunderground v.1.15,2013-01-05 05:49:00,
2013-01-05 00:55:00,21.7,17.9,30.36,SSW,210,4.0,10.0,85,0.00,,,0.00,Wunderground v.1.15,2013-01-05 05:55:00,
2013-01-05 01:00:00,21.7,18.2,30.36,SSW,205,4.0,4.0,86,0.00,,,0.00,Wunderground v.1.15,2013-01-05 06:00:00,
2013-01-05 01:05:00,21.6,18.1,30.36,SSW,207,5.0,7.0,86,0.00,,,0.00,Wunderground v.1.15,2013-01-05 06:05:00,
2013-01-05 01:11:00,21.3,17.5,30.36,SSW,209,5.0,5.0,85,0.00,,,0.00,Wunderground v.1.15,2013-01-05 06:11:00,
2013-01-05 01:17:00,21.2,17.7,30.36,SW,218,4.0,6.0,86,0.00,,,0.00,Wunderground v.1.15,2013-01-05 06:17:00,
2013-01-05 01:22:00,21.2,17.7,30.36,SW,218,5.0,5.0,86,0.00,,,0.00,Wunderground v.1.15,2013-01-05 06:22:00,
2013-01-05 01:28:00,21.1,17.6,30.36,SSW,203,4.0,5.0,86,0.00,,,0.00,Wunderground v.1.15,2013-01-05 06:28:00,
2013-01-05 01:34:00,20.9,17.4,30.36,SSW,207,4.0,11.0,86,0.00,,,0.00,Wunderground v.1.15,2013-01-05 06:34:00,
2013-01-05 01:39:00,20.7,17.2,30.36,SW,215,4.0,11.0,86,0.00,,,0.00,Wunderground v.1.15,2013-01-05 06:39:00,
2013-01-05 01:45:00,20.7,17.4,30.35,SSW,206,5.0,11.0,87,0.00,,,0.00,Wunderground v.1.15,2013-01-05 06:45:00,
2013-01-05 01:51:00,20.6,17.1,30.35,SE,145,4.0,11.0,86,0.00,,,0.00,Wunderground v.1.15,2013-01-05 06:51:00,
2013-01-05 01:56:00,20.1,16.9,30.35,SSW,194,3.0,11.0,87,0.00,,,0.00,Wunderground v.1.15,2013-01-05 06:56:00,
2013-01-05 02:02:00,19.7,16.5,30.35,South,188,3.0,3.0,87,0.00,,,0.00,Wunderground v.1.15,2013-01-05 07:02:00,
2013-01-05 02:08:00,19.3,16.3,30.35,SSE,155,3.0,3.0,88,0.00,,,0.00,Wunderground v.1.15,2013-01-05 07:08:00,
2013-01-05 02:13:00,19.2,16.2,30.35,SSE,149,2.0,3.0,88,0.00,,,0.00,Wunderground v.1.15,2013-01-05 07:13:00,
2013-01-05 02:19:00,19.2,16.5,30.35,South,191,3.0,4.0,89,0.00,,,0.00,Wunderground v.1.15,2013-01-05 07:19:00,
2013-01-05 02:25:00,19.2,16.2,30.36,SSW,197,4.0,5.0,88,0.00,,,0.00,Wunderground v.1.15,2013-01-05 07:25:00,
2013-01-05 02:30:00,19.2,16.2,30.36,SSW,200,5.0,5.0,88,0.00,,,0.00,Wunderground v.1.15,2013-01-05 07:30:00,
2013-01-05 02:36:00,19.2,16.2,30.37,South,190,5.0,8.0,88,0.00,,,0.00,Wunderground v.1.15,2013-01-05 07:36:00,
2013-01-05 02:42:00,19.4,16.4,30.37,SW,222,6.0,8.0,88,0.00,,,0.00,Wunderground v.1.15,2013-01-05 07:42:00,
2013-01-05 02:47:00,19.4,16.4,30.37,SSW,205,5.0,8.0,88,0.00,,,0.00,Wunderground v.1.15,2013-01-05 07:47:00,
2013-01-05 02:53:00,19.5,16.3,30.38,SSW,207,5.0,8.0,87,0.00,,,0.00,Wunderground v.1.15,2013-01-05 07:53:00,
2013-01-05 02:58:00,19.8,16.6,30.37,SW,218,6.0,8.0,87,0.00,,,0.00,Wunderground v.1.15,2013-01-05 07:58:00,
2013-01-05 03:04:00,19.8,16.6,30.38,SW,225,5.0,6.0,87,0.00,,,0.00,Wunderground v.1.15,2013-01-05 08:04:00,
2013-01-05 03:10:00,19.8,16.6,30.37,SSW,208,5.0,5.0,87,0.00,,,0.00,Wunderground v.1.15,2013-01-05 08:10:00,
2013-01-05 03:16:00,19.9,16.9,30.38,SSW,211,5.0,6.0,88,0.00,,,0.00,Wunderground v.1.15,2013-01-05 08:16:00,
2013-01-05 03:21:00,20.0,16.8,30.38,SW,217,5.0,7.0,87,0.00,,,0.00,Wunderground v.1.15,2013-01-05 08:21:00,
2013-01-05 03:27:00,20.0,16.8,30.38,SSW,211,5.0,7.0,87,0.00,,,0.00,Wunderground v.1.15,2013-01-05 08:27:00,
2013-01-05 03:32:00,20.0,16.8,30.38,SW,215,5.0,8.0,87,0.00,,,0.00,Wunderground v.1.15,2013-01-05 08:32:00,
2013-01-05 03:38:00,20.3,17.3,30.38,SSW,199,5.0,8.0,88,0.00,,,0.00,Wunderground v.1.15,2013-01-05 08:38:00,
2013-01-05 03:44:00,20.4,17.1,30.38,SSW,195,5.0,8.0,87,0.00,,,0.00,Wunderground v.1.15,2013-01-05 08:44:00,
2013-01-05 03:49:00,20.5,17.5,30.38,SSW,210,5.0,8.0,88,0.00,,,0.00,Wunderground v.1.15,2013-01-05 08:49:00,
2013-01-05 03:55:00,20.6,17.3,30.38,SW,215,5.0,8.0,87,0.00,,,0.00,Wunderground v.1.15,2013-01-05 08:55:00,
2013-01-05 04:00:00,20.6,17.6,30.38,SSW,210,5.0,5.0,88,0.00,,,0.00,Wunderground v.1.15,2013-01-05 09:00:00,
2013-01-05 04:06:00,20.4,17.4,30.38,SW,215,4.0,5.0,88,0.00,,,0.00,Wunderground v.1.15,2013-01-05 09:06:00,
2013-01-05 04:12:00,20.4,17.4,30.38,SSW,201,4.0,4.0,88,0.00,,,0.00,Wunderground v.1.15,2013-01-05 09:12:00,
2013-01-05 04:17:00,20.3,17.3,30.37,SSW,200,4.0,5.0,88,0.00,,,0.00,Wunderground v.1.15,2013-01-05 09:17:00,
2013-01-05 04:23:00,20.2,17.2,30.37,SSW,200,4.0,5.0,88,0.00,,,0.00,Wunderground v.1.15,2013-01-05 09:23:00,
2013-01-05 04:28:00,20.1,17.4,30.37,SSW,195,4.0,5.0,89,0.00,,,0.00,Wunderground v.1.15,2013-01-05 09:28:00,
2013-01-05 04:34:00,19.8,16.8,30.37,South,188,3.0,8.0,88,0.00,,,0.00,Wunderground v.1.15,2013-01-05 09:34:00,
2013-01-05 04:40:00,19.6,16.9,30.37,South,191,3.0,8.0,89,0.00,,,0.00,Wunderground v.1.15,2013-01-05 09:40:00,
2013-01-05 04:46:00,19.4,16.7,30.36,South,188,3.0,8.0,89,0.00,,,0.00,Wunderground v.1.15,2013-01-05 09:46:00,
2013-01-05 04:52:00,18.9,16.2,30.37,South,188,3.0,8.0,89,0.00,,,0.00,Wunderground v.1.15,2013-01-05 09:52:00,
2013-01-05 04:57:00,18.9,16.5,30.36,SSW,193,3.0,8.0,90,0.00,,,0.00,Wunderground v.1.15,2013-01-05 09:57:00,
2013-01-05 05:03:00,18.7,16.3,30.36,SSW,198,3.0,4.0,90,0.00,,,0.00,Wunderground v.1.15,2013-01-05 10:03:00,
2013-01-05 05:09:00,18.3,15.9,30.36,SSE,166,3.0,4.0,90,0.00,,,0.00,Wunderground v.1.15,2013-01-05 10:09:00,
2013-01-05 05:14:00,17.9,15.5,30.36,SSE,156,3.0,4.0,90,0.00,,,0.00,Wunderground v.1.15,2013-01-05 10:14:00,
2013-01-05 05:20:00,18.1,16.2,30.36,SSW,195,4.0,4.0,92,0.00,,,0.00,Wunderground v.1.15,2013-01-05 10:20:00,
2013-01-05 05:25:00,18.5,16.6,30.36,SSE,162,4.0,5.0,92,0.00,,,0.00,Wunderground v.1.15,2013-01-05 10:25:00,
2013-01-05 05:31:00,18.6,16.4,30.36,SSW,197,4.0,6.0,91,0.00,,,0.00,Wunderground v.1.15,2013-01-05 10:31:00,
2013-01-05 05:37:00,18.6,16.4,30.36,SSW,198,4.0,6.0,91,0.00,,,0.00,Wunderground v.1.15,2013-01-05 10:37:00,
2013-01-05 05:43:00,18.5,16.3,30.37,South,183,5.0,6.0,91,0.00,,,0.00,Wunderground v.1.15,2013-01-05 10:43:00,
2013-01-05 05:48:00,18.3,15.9,30.36,SSW,193,5.0,6.0,90,0.00,,,0.00,Wunderground v.1.15,2013-01-05 10:48:00,
2013-01-05 05:54:00,18.0,15.8,30.36,SSW,193,4.0,6.0,91,0.00,,,0.00,Wunderground v.1.15,2013-01-05 10:54:00,
2013-01-05 05:59:00,18.1,15.9,30.37,SSW,200,4.0,6.0,91,0.00,,,0.00,Wunderground v.1.15,2013-01-05 10:59:00,
2013-01-05 06:05:00,18.1,15.9,30.37,SSW,198,4.0,5.0,91,0.00,,,0.00,Wunderground v.1.15,2013-01-05 11:05:00,
2013-01-05 06:11:00,18.2,16.0,30.37,South,188,4.0,4.0,91,0.00,,,0.00,Wunderground v.1.15,2013-01-05 11:11:00,
2013-01-05 06:17:00,18.3,16.1,30.37,South,190,4.0,5.0,91,0.00,,,0.00,Wunderground v.1.15,2013-01-05 11:17:00,
2013-01-05 06:22:00,18.2,16.0,30.37,South,187,4.0,4.0,91,0.00,,,0.00,Wunderground v.1.15,2013-01-05 11:22:00,
2013-01-05 06:28:00,18.2,16.0,30.37,South,174,4.0,4.0,91,0.00,,,0.00,Wunderground v.1.15,2013-01-05 11:28:00,
2013-01-05 06:33:00,18.2,16.0,30.36,South,187,4.0,6.0,91,0.00,,,0.00,Wunderground v.1.15,2013-01-05 11:33:00,
2013-01-05 06:39:00,18.2,16.0,30.36,SSE,159,4.0,6.0,91,0.00,,,0.00,Wunderground v.1.15,2013-01-05 11:39:00,
2013-01-05 06:45:00,18.1,15.7,30.35,South,191,3.0,5.0,90,0.00,,,0.00,Wunderground v.1.15,2013-01-05 11:45:00,
2013-01-05 06:51:00,17.8,15.4,30.35,South,184,3.0,5.0,90,0.00,,,0.00,Wunderground v.1.15,2013-01-05 11:51:00,
2013-01-05 06:56:00,18.0,15.8,30.35,SSE,160,4.0,5.0,91,0.00,,,0.00,Wunderground v.1.15,2013-01-05 11:56:00,
2013-01-05 07:02:00,18.1,15.9,30.35,SSE,162,4.0,5.0,91,0.00,,,0.00,Wunderground v.1.15,2013-01-05 12:02:00,
2013-01-05 07:08:00,18.0,15.8,30.35,South,188,4.0,6.0,91,0.00,,,0.00,Wunderground v.1.15,2013-01-05 12:08:00,
2013-01-05 07:13:00,17.9,15.7,30.35,South,173,5.0,5.0,91,0.00,,,0.00,Wunderground v.1.15,2013-01-05 12:13:00,
2013-01-05 07:19:00,17.9,15.7,30.35,South,186,5.0,6.0,91,0.00,,,0.00,Wunderground v.1.15,2013-01-05 12:19:00,
2013-01-05 07:25:00,17.8,15.6,30.35,South,170,4.0,5.0,91,0.00,,,0.00,Wunderground v.1.15,2013-01-05 12:25:00,
2013-01-05 07:30:00,17.9,15.7,30.35,SE,142,4.0,4.0,91,0.00,,,0.00,Wunderground v.1.15,2013-01-05 12:30:00,
2013-01-05 07:36:00,17.6,15.4,30.35,SE,143,4.0,6.0,91,0.00,,,0.00,Wunderground v.1.15,2013-01-05 12:36:00,
2013-01-05 07:42:00,17.7,15.5,30.35,SSE,159,4.0,6.0,91,0.00,,,0.00,Wunderground v.1.15,2013-01-05 12:42:00,
2013-01-05 07:47:00,17.4,15.0,30.35,SSE,150,4.0,6.0,90,0.00,,,0.00,Wunderground v.1.15,2013-01-05 12:47:00,
2013-01-05 07:53:00,17.0,14.8,30.35,South,169,3.0,6.0,91,0.00,,,0.00,Wunderground v.1.15,2013-01-05 12:53:00,
2013-01-05 07:59:00,17.1,14.9,30.36,South,181,4.0,6.0,91,0.00,,,0.00,Wunderground v.1.15,2013-01-05 12:59:00,
2013-01-05 08:04:00,17.2,15.3,30.36,SE,134,4.0,4.0,92,0.00,,,0.00,Wunderground v.1.15,2013-01-05 13:04:00,
2013-01-05 08:10:00,17.5,15.6,30.36,SE,137,4.0,4.0,92,0.00,,,0.00,Wunderground v.1.15,2013-01-05 13:10:00,
2013-01-05 08:16:00,17.1,14.7,30.35,SE,125,4.0,4.0,90,0.00,,,0.00,Wunderground v.1.15,2013-01-05 13:16:00,
2013-01-05 08:21:00,16.8,14.4,30.36,SE,131,3.0,4.0,90,0.00,,,0.00,Wunderground v.1.15,2013-01-05 13:21:00,
2013-01-05 08:27:00,17.0,14.8,30.35,SSE,160,3.0,5.0,91,0.00,,,0.00,Wunderground v.1.15,2013-01-05 13:27:00,
2013-01-05 08:33:00,17.3,15.1,30.36,SSE,165,4.0,6.0,91,0.00,,,0.00,Wunderground v.1.15,2013-01-05 13:33:00,
2013-01-05 08:38:00,17.7,15.5,30.37,SSE,166,4.0,6.0,91,0.00,,,0.00,Wunderground v.1.15,2013-01-05 13:38:00,
2013-01-05 08:44:00,18.3,15.9,30.37,SE,134,5.0,6.0,90,0.00,,,0.00,Wunderground v.1.15,2013-01-05 13:44:00,
2013-01-05 08:49:00,18.5,16.1,30.37,SSE,158,4.0,6.0,90,0.00,,,0.00,Wunderground v.1.15,2013-01-05 13:49:00,
2013-01-05 08:55:00,19.2,16.5,30.37,SSE,152,4.0,6.0,89,0.00,,,0.00,Wunderground v.1.15,2013-01-05 13:55:00,
2013-01-05 09:00:00,19.5,16.8,30.37,SSE,152,4.0,4.0,89,0.00,,,0.00,Wunderground v.1.15,2013-01-05 14:00:00,
2013-01-05 09:06:00,20.1,17.1,30.36,SW,214,4.0,7.0,88,0.00,,,0.00,Wunderground v.1.15,2013-01-05 14:06:00,
2013-01-05 09:12:00,20.7,17.7,30.36,SSE,165,4.0,5.0,88,0.00,,,0.00,Wunderground v.1.15,2013-01-05 14:12:00,
2013-01-05 09:18:00,21.3,18.0,30.35,SSW,203,4.0,5.0,87,0.00,,,0.00,Wunderground v.1.15,2013-01-05 14:18:00,
2013-01-05 09:24:00,21.6,18.1,30.35,South,170,4.0,5.0,86,0.00,,,0.00,Wunderground v.1.15,2013-01-05 14:24:00,
2013-01-05 09:30:00,22.3,18.7,30.35,SSE,147,4.0,4.0,86,0.00,,,0.00,Wunderground v.1.15,2013-01-05 14:30:00,
2013-01-05 09:36:00,23.1,19.3,30.35,South,190,4.0,6.0,85,0.00,,,0.00,Wunderground v.1.15,2013-01-05 14:36:00,
2013-01-05 09:42:00,23.3,19.2,30.35,SSW,200,4.0,6.0,84,0.00,,,0.00,Wunderground v.1.15,2013-01-05 14:42:00,
2013-01-05 09:47:00,23.7,19.6,30.36,SSE,158,5.0,7.0,84,0.00,,,0.00,Wunderground v.1.15,2013-01-05 14:47:00,
2013-01-05 09:53:00,24.1,19.7,30.36,South,174,6.0,6.0,83,0.00,,,0.00,Wunderground v.1.15,2013-01-05 14:53:00,
2013-01-05 09:59:00,24.1,19.7,30.36,SSW,207,6.0,7.0,83,0.00,,,0.00,Wunderground v.1.15,2013-01-05 14:59:00,
2013-01-05 10:04:00,23.6,19.5,30.36,SSW,202,6.0,8.0,84,0.00,,,0.00,Wunderground v.1.15,2013-01-05 15:04:00,
2013-01-05 10:10:00,23.4,19.3,30.36,SSW,194,6.0,6.0,84,0.00,,,0.00,Wunderground v.1.15,2013-01-05 15:10:00,
2013-01-05 10:16:00,23.6,19.8,30.35,South,187,5.0,6.0,85,0.00,,,0.00,Wunderground v.1.15,2013-01-05 15:16:00,
2013-01-05 10:21:00,24.0,19.9,30.35,SSE,165,4.0,5.0,84,0.00,,,0.00,Wunderground v.1.15,2013-01-05 15:21:00,
2013-01-05 10:27:00,24.5,20.4,30.35,SE,136,4.0,5.0,84,0.00,,,0.00,Wunderground v.1.15,2013-01-05 15:27:00,
2013-01-05 10:33:00,24.8,20.7,30.34,South,184,4.0,9.0,84,0.00,,,0.00,Wunderground v.1.15,2013-01-05 15:33:00,
2013-01-05 10:38:00,25.4,21.0,30.34,SE,129,4.0,9.0,83,0.00,,,0.00,Wunderground v.1.15,2013-01-05 15:38:00,
2013-01-05 10:44:00,26.0,21.3,30.34,SE,131,4.0,9.0,82,0.00,,,0.00,Wunderground v.1.15,2013-01-05 15:44:00,
2013-01-05 10:50:00,26.6,21.8,30.34,SE,135,4.0,9.0,82,0.00,,,0.00,Wunderground v.1.15,2013-01-05 15:50:00,
2013-01-05 10:55:00,27.6,22.5,30.34,SE,133,4.0,9.0,81,0.00,,,0.00,Wunderground v.1.15,2013-01-05 15:55:00,
2013-01-05 11:00:00,28.1,22.7,30.34,SSE,151,4.0,5.0,80,0.00,,,0.00,Wunderground v.1.15,2013-01-05 16:00:00,
2013-01-05 11:05:00,28.5,22.8,30.34,South,183,5.0,6.0,79,0.00,,,0.00,Wunderground v.1.15,2013-01-05 16:05:00,
2013-01-05 11:11:00,28.6,22.6,30.34,SSE,153,6.0,7.0,78,0.00,,,0.00,Wunderground v.1.15,2013-01-05 16:11:00,
2013-01-05 11:17:00,28.5,22.5,30.34,South,191,7.0,8.0,78,0.00,,,0.00,Wunderground v.1.15,2013-01-05 16:17:00,
2013-01-05 11:22:00,28.8,23.1,30.33,SSW,200,6.0,7.0,79,0.00,,,0.00,Wunderground v.1.15,2013-01-05 16:22:00,
2013-01-05 11:28:00,29.1,23.1,30.33,SSE,155,6.0,10.0,78,0.00,,,0.00,Wunderground v.1.15,2013-01-05 16:28:00,
2013-01-05 11:33:00,29.2,23.2,30.33,SSW,204,6.0,10.0,78,0.00,,,0.00,Wunderground v.1.15,2013-01-05 16:33:00,
2013-01-05 11:39:00,29.5,23.2,30.33,SSE,166,7.0,10.0,77,0.00,,,0.00,Wunderground v.1.15,2013-01-05 16:39:00,
2013-01-05 11:45:00,29.6,23.3,30.33,South,174,7.0,11.0,77,0.00,,,0.00,Wunderground v.1.15,2013-01-05 16:45:00,
2013-01-05 11:50:00,29.5,23.2,30.33,SSE,153,7.0,7.0,77,0.00,,,0.00,Wunderground v.1.15,2013-01-05 16:50:00,
2013-01-05 11:56:00,29.4,23.1,30.33,SW,215,7.0,12.0,77,0.00,,,0.00,Wunderground v.1.15,2013-01-05 16:56:00,
2013-01-05 12:02:00,29.4,23.4,30.32,SSW,195,7.0,7.0,78,0.00,,,0.00,Wunderground v.1.15,2013-01-05 17:02:00,
2013-01-05 12:07:00,29.6,23.6,30.32,SSW,207,5.0,7.0,78,0.00,,,0.00,Wunderground v.1.15,2013-01-05 17:07:00,
2013-01-05 12:13:00,29.6,23.6,30.31,SSW,194,6.0,8.0,78,0.00,,,0.00,Wunderground v.1.15,2013-01-05 17:13:00,
2013-01-05 12:19:00,29.7,23.7,30.31,South,173,6.0,8.0,78,0.00,,,0.00,Wunderground v.1.15,2013-01-05 17:19:00,
2013-01-05 12:24:00,29.7,23.7,30.30,South,187,6.0,7.0,78,0.00,,,0.00,Wunderground v.1.15,2013-01-05 17:24:00,
2013-01-05 12:30:00,29.8,23.8,30.30,SSW,207,6.0,6.0,78,0.00,,,0.00,Wunderground v.1.15,2013-01-05 17:30:00,
2013-01-05 12:36:00,29.6,23.9,30.30,SSW,205,7.0,11.0,79,0.00,,,0.00,Wunderground v.1.15,2013-01-05 17:36:00,
2013-01-05 12:42:00,29.6,23.9,30.30,South,181,9.0,11.0,79,0.00,,,0.00,Wunderground v.1.15,2013-01-05 17:42:00,
2013-01-05 12:47:00,29.7,24.3,30.29,SSE,160,8.0,11.0,80,0.00,,,0.00,Wunderground v.1.15,2013-01-05 17:47:00,
2013-01-05 12:53:00,29.9,24.2,30.29,SSW,204,8.0,11.0,79,0.00,,,0.00,Wunderground v.1.15,2013-01-05 17:53:00,
2013-01-05 12:59:00,30.1,24.4,30.28,SW,215,8.0,11.0,79,0.00,,,0.00,Wunderground v.1.15,2013-01-05 17:59:00,
2013-01-05 13:05:00,30.2,24.5,30.28,SSW,204,7.0,9.0,79,0.00,,,0.00,Wunderground v.1.15,2013-01-05 18:05:00,
2013-01-05 13:11:00,30.4,24.7,30.28,SW,219,8.0,8.0,79,0.00,,,0.00,Wunderground v.1.15,2013-01-05 18:11:00,
2013-01-05 13:17:00,30.6,25.2,30.27,South,180,8.0,11.0,80,0.00,,,0.00,Wunderground v.1.15,2013-01-05 18:17:00,
2013-01-05 13:22:00,31.2,25.7,30.26,South,184,7.0,8.0,80,0.00,,,0.00,Wunderground v.1.15,2013-01-05 18:22:00,
2013-01-05 13:28:00,31.5,25.4,30.26,SSW,198,8.0,12.0,78,0.00,,,0.00,Wunderground v.1.15,2013-01-05 18:28:00,
2013-01-05 13:34:00,31.6,25.8,30.26,SSW,194,9.0,11.0,79,0.00,,,0.00,Wunderground v.1.15,2013-01-05 18:34:00,
2013-01-05 13:40:00,32.1,26.0,30.25,SSW,200,8.0,8.0,78,0.00,,,0.00,Wunderground v.1.15,2013-01-05 18:40:00,
2013-01-05 13:46:00,32.5,26.1,30.25,SSW,201,7.0,11.0,77,0.00,,,0.00,Wunderground v.1.15,2013-01-05 18:46:00,
2013-01-05 13:51:00,32.4,26.0,30.25,SSW,201,8.0,11.0,77,0.00,,,0.00,Wunderground v.1.15,2013-01-05 18:51:00,
2013-01-05 13:57:00,32.5,26.4,30.25,South,186,9.0,11.0,78,0.00,,,0.00,Wunderground v.1.15,2013-01-05 18:57:00,
2013-01-05 14:02:00,32.5,26.4,30.25,SW,225,8.0,10.0,78,0.00,,,0.00,Wunderground v.1.15,2013-01-05 19:02:00,
2013-01-05 14:08:00,32.5,26.4,30.24,SSW,197,9.0,13.0,78,0.00,,,0.00,Wunderground v.1.15,2013-01-05 19:08:00,
2013-01-05 14:13:00,32.5,26.7,30.24,SSW,195,8.0,9.0,79,0.00,,,0.00,Wunderground v.1.15,2013-01-05 19:13:00,
2013-01-05 14:19:00,32.5,26.4,30.23,South,181,8.0,9.0,78,0.00,,,0.00,Wunderground v.1.15,2013-01-05 19:19:00,
2013-01-05 14:25:00,32.7,26.6,30.22,South,176,7.0,8.0,78,0.00,,,0.00,Wunderground v.1.15,2013-01-05 19:25:00,
2013-01-05 14:31:00,32.9,26.8,30.22,SSW,205,7.0,14.0,78,0.00,,,0.00,Wunderground v.1.15,2013-01-05 19:31:00,
2013-01-05 14:37:00,33.3,26.9,30.22,SW,215,7.0,14.0,77,0.00,,,0.00,Wunderground v.1.15,2013-01-05 19:37:00,
2013-01-05 14:42:00,33.5,27.1,30.22,SW,219,7.0,14.0,77,0.00,,,0.00,Wunderground v.1.15,2013-01-05 19:42:00,
2013-01-05 14:48:00,33.6,26.8,30.23,South,182,9.0,14.0,76,0.00,,,0.00,Wunderground v.1.15,2013-01-05 19:48:00,
2013-01-05 14:54:00,33.6,27.2,30.22,South,174,8.0,14.0,77,0.00,,,0.00,Wunderground v.1.15,2013-01-05 19:54:00,
2013-01-05 15:00:00,33.5,26.7,30.22,South,184,8.0,9.0,76,0.00,,,0.00,Wunderground v.1.15,2013-01-05 20:00:00,
2013-01-05 15:06:00,33.5,27.1,30.22,South,190,8.0,11.0,77,0.00,,,0.00,Wunderground v.1.15,2013-01-05 20:06:00,
2013-01-05 15:12:00,33.6,27.2,30.22,SSW,204,7.0,8.0,77,0.00,,,0.00,Wunderground v.1.15,2013-01-05 20:12:00,
2013-01-05 15:17:00,33.7,27.3,30.22,SSW,195,7.0,8.0,77,0.00,,,0.00,Wunderground v.1.15,2013-01-05 20:17:00,
2013-01-05 15:23:00,33.9,27.4,30.22,South,179,7.0,8.0,77,0.00,,,0.00,Wunderground v.1.15,2013-01-05 20:23:00,
2013-01-05 15:29:00,34.0,27.2,30.21,SW,217,6.0,8.0,76,0.00,,,0.00,Wunderground v.1.15,2013-01-05 20:29:00,
2013-01-05 15:35:00,34.0,27.2,30.22,SSW,211,7.0,15.0,76,0.00,,,0.00,Wunderground v.1.15,2013-01-05 20:35:00,
2013-01-05 15:40:00,34.0,27.5,30.21,SW,218,8.0,15.0,77,0.00,,,0.00,Wunderground v.1.15,2013-01-05 20:40:00,
2013-01-05 15:46:00,33.9,27.4,30.22,SSW,203,8.0,15.0,77,0.00,,,0.00,Wunderground v.1.15,2013-01-05 20:46:00,
2013-01-05 15:52:00,33.9,27.8,30.22,SW,215,7.0,15.0,78,0.00,,,0.00,Wunderground v.1.15,2013-01-05 20:52:00,
2013-01-05 15:58:00,33.9,27.4,30.22,South,191,6.0,15.0,77,0.00,,,0.00,Wunderground v.1.15,2013-01-05 20:58:00,
2013-01-05 16:04:00,34.0,27.5,30.22,SW,217,7.0,10.0,77,0.00,,,0.00,Wunderground v.1.15,2013-01-05 21:04:00,
2013-01-05 16:09:00,34.0,27.5,30.22,SW,224,8.0,10.0,77,0.00,,,0.00,Wunderground v.1.15,2013-01-05 21:09:00,
2013-01-05 16:15:00,34.0,27.9,30.21,South,179,8.0,14.0,78,0.00,,,0.00,Wunderground v.1.15,2013-01-05 21:15:00,
2013-01-05 16:21:00,34.0,27.9,30.23,SW,231,8.0,11.0,78,0.00,,,0.00,Wunderground v.1.15,2013-01-05 21:21:00,
2013-01-05 16:27:00,34.1,27.3,30.22,North,355,9.0,11.0,76,0.00,,,0.00,Wunderground v.1.15,2013-01-05 21:27:00,
2013-01-05 16:32:00,34.3,27.8,30.23,SW,220,10.0,13.0,77,0.00,,,0.00,Wunderground v.1.15,2013-01-05 21:32:00,
2013-01-05 16:38:00,33.8,28.6,30.23,SW,235,13.0,23.0,81,0.00,,,0.00,Wunderground v.1.15,2013-01-05 21:38:00,
2013-01-05 16:43:00,33.1,29.1,30.23,SW,215,15.0,18.0,85,0.00,,,0.00,Wunderground v.1.15,2013-01-05 21:43:00,
2013-01-05 16:49:00,32.5,29.1,30.22,SW,221,13.0,18.0,87,0.00,,,0.00,Wunderground v.1.15,2013-01-05 21:49:00,
2013-01-05 16:55:00,32.2,29.0,30.23,SW,221,11.0,15.0,88,0.00,,,0.00,Wunderground v.1.15,2013-01-05 21:55:00,
2013-01-05 17:00:00,32.0,29.1,30.23,SW,217,10.0,10.0,89,0.00,,,0.00,Wunderground v.1.15,2013-01-05 22:00:00,
2013-01-05 17:06:00,31.8,29.2,30.24,WSW,240,9.0,12.0,90,0.00,,,0.00,Wunderground v.1.15,2013-01-05 22:06:00,
2013-01-05 17:11:00,31.7,29.4,30.23,SW,225,9.0,9.0,91,0.00,,,0.00,Wunderground v.1.15,2013-01-05 22:11:00,
2013-01-05 17:17:00,31.6,29.5,30.23,SW,217,8.0,10.0,92,0.00,,,0.00,Wunderground v.1.15,2013-01-05 22:17:00,
2013-01-05 17:23:00,31.4,29.3,30.23,SW,232,8.0,9.0,92,0.00,,,0.00,Wunderground v.1.15,2013-01-05 22:23:00,
2013-01-05 17:28:00,31.3,29.5,30.23,SW,226,7.0,10.0,93,0.00,,,0.00,Wunderground v.1.15,2013-01-05 22:28:00,
2013-01-05 17:34:00,31.3,29.5,30.22,SW,225,7.0,17.0,93,0.00,,,0.00,Wunderground v.1.15,2013-01-05 22:34:00,
2013-01-05 17:40:00,31.2,29.4,30.22,SW,214,7.0,7.0,93,0.00,,,0.00,Wunderground v.1.15,2013-01-05 22:40:00,
2013-01-05 17:45:00,31.1,29.3,30.22,WSW,238,7.0,17.0,93,0.00,,,0.00,Wunderground v.1.15,2013-01-05 22:45:00,
2013-01-05 17:51:00,31.2,29.7,30.22,SW,221,7.0,17.0,94,0.00,,,0.00,Wunderground v.1.15,2013-01-05 22:51:00,
2013-01-05 17:57:00,31.1,29.6,30.22,SSW,200,7.0,17.0,94,0.00,,,0.00,Wunderground v.1.15,2013-01-05 22:57:00,
2013-01-05 18:02:00,31.0,29.5,30.22,South,186,7.0,11.0,94,0.00,,,0.00,Wunderground v.1.15,2013-01-05 23:02:00,
2013-01-05 18:08:00,31.0,29.2,30.22,SW,222,8.0,11.0,93,0.00,,,0.00,Wunderground v.1.15,2013-01-05 23:08:00,
2013-01-05 18:14:00,31.0,29.2,30.22,SW,214,7.0,9.0,93,0.00,,,0.00,Wunderground v.1.15,2013-01-05 23:14:00,
2013-01-05 18:19:00,31.0,29.2,30.22,SW,215,7.0,9.0,93,0.00,,,0.00,Wunderground v.1.15,2013-01-05 23:19:00,
2013-01-05 18:25:00,31.0,29.2,30.22,SSW,204,7.0,8.0,93,0.00,,,0.00,Wunderground v.1.15,2013-01-05 23:25:00,
2013-01-05 18:31:00,31.0,29.2,30.21,South,169,7.0,17.0,93,0.00,,,0.00,Wunderground v.1.15,2013-01-05 23:31:00,
2013-01-05 18:36:00,31.0,29.2,30.20,SSW,199,7.0,17.0,93,0.00,,,0.00,Wunderground v.1.15,2013-01-05 23:36:00,
2013-01-05 18:42:00,31.0,28.9,30.20,South,191,7.0,17.0,92,0.00,,,0.00,Wunderground v.1.15,2013-01-05 23:42:00,
2013-01-05 18:48:00,31.0,28.9,30.20,SW,221,6.0,17.0,92,0.00,,,0.00,Wunderground v.1.15,2013-01-05 23:48:00,
2013-01-05 18:53:00,31.0,28.9,30.20,SSW,203,6.0,17.0,92,0.00,,,0.00,Wunderground v.1.15,2013-01-05 23:53:00,
2013-01-05 18:59:00,31.0,28.9,30.20,SSE,166,6.0,17.0,92,0.00,,,0.00,Wunderground v.1.15,2013-01-05 23:59:00,
2013-01-05 19:05:00,31.0,28.9,30.20,South,180,6.0,7.0,92,0.00,,,0.00,Wunderground v.1.15,2013-01-06 00:05:00,
2013-01-05 19:10:00,30.9,28.6,30.20,SSW,205,7.0,7.0,91,0.00,,,0.00,Wunderground v.1.15,2013-01-06 00:10:00,
2013-01-05 19:16:00,30.9,28.9,30.20,SSW,203,7.0,8.0,92,0.00,,,0.00,Wunderground v.1.15,2013-01-06 00:16:00,
2013-01-05 19:21:00,30.9,28.9,30.21,SSW,194,7.0,8.0,92,0.00,,,0.00,Wunderground v.1.15,2013-01-06 00:21:00,
2013-01-05 19:27:00,31.0,28.9,30.21,SSW,211,6.0,8.0,92,0.00,,,0.00,Wunderground v.1.15,2013-01-06 00:27:00,
2013-01-05 19:33:00,31.0,28.9,30.20,SW,222,6.0,13.0,92,0.00,,,0.00,Wunderground v.1.15,2013-01-06 00:33:00,
2013-01-05 19:39:00,31.0,28.9,30.20,SSW,204,8.0,13.0,92,0.00,,,0.00,Wunderground v.1.15,2013-01-06 00:39:00,
2013-01-05 19:44:00,31.0,28.9,30.20,SSW,198,8.0,13.0,92,0.00,,,0.00,Wunderground v.1.15,2013-01-06 00:44:00,
2013-01-05 19:50:00,31.1,28.8,30.20,SW,219,8.0,13.0,91,0.00,,,0.00,Wunderground v.1.15,2013-01-06 00:50:00,
2013-01-05 19:56:00,31.1,28.8,30.20,SSW,212,8.0,13.0,91,0.00,,,0.00,Wunderground v.1.15,2013-01-06 00:56:00,
2013-01-05 20:02:00,31.1,28.8,30.20,SSW,210,9.0,9.0,91,0.00,,,0.00,Wunderground v.1.15,2013-01-06 01:02:00,
2013-01-05 20:08:00,31.1,29.0,30.20,South,187,9.0,10.0,92,0.00,,,0.00,Wunderground v.1.15,2013-01-06 01:08:00,
2013-01-05 20:14:00,31.2,29.1,30.20,SSW,208,8.0,12.0,92,0.00,,,0.00,Wunderground v.1.15,2013-01-06 01:14:00,
2013-01-05 20:19:00,31.2,29.1,30.20,South,173,8.0,12.0,92,0.00,,,0.00,Wunderground v.1.15,2013-01-06 01:19:00,
2013-01-05 20:25:00,31.3,29.2,30.20,SW,235,8.0,10.0,92,0.00,,,0.00,Wunderground v.1.15,2013-01-06 01:25:00,
2013-01-05 20:31:00,31.3,29.0,30.20,SW,222,8.0,11.0,91,0.00,,,0.00,Wunderground v.1.15,2013-01-06 01:31:00,
2013-01-05 20:37:00,31.3,29.0,30.20,SSW,208,9.0,12.0,91,0.00,,,0.00,Wunderground v.1.15,2013-01-06 01:37:00,
2013-01-05 20:43:00,31.3,29.0,30.20,SSW,198,9.0,11.0,91,0.00,,,0.00,Wunderground v.1.15,2013-01-06 01:43:00,
2013-01-05 20:48:00,31.4,29.1,30.19,SSW,194,9.0,15.0,91,0.00,,,0.00,Wunderground v.1.15,2013-01-06 01:48:00,
2013-01-05 20:54:00,31.3,29.0,30.19,SW,214,9.0,11.0,91,0.00,,,0.00,Wunderground v.1.15,2013-01-06 01:54:00,
2013-01-05 21:00:00,31.3,28.7,30.18,SSW,198,8.0,11.0,90,0.00,,,0.00,Wunderground v.1.15,2013-01-06 02:00:00,
2013-01-05 21:06:00,31.4,28.8,30.18,South,191,9.0,11.0,90,0.00,,,0.00,Wunderground v.1.15,2013-01-06 02:06:00,
2013-01-05 21:12:00,31.4,28.8,30.18,SSW,200,9.0,13.0,90,0.00,,,0.00,Wunderground v.1.15,2013-01-06 02:12:00,
2013-01-05 21:18:00,31.4,28.8,30.18,SSW,210,9.0,13.0,90,0.00,,,0.00,Wunderground v.1.15,2013-01-06 02:18:00,
2013-01-05 21:24:00,31.5,28.9,30.18,SSW,200,9.0,11.0,90,0.00,,,0.00,Wunderground v.1.15,2013-01-06 02:24:00,
2013-01-05 21:29:00,31.6,29.0,30.18,SSW,201,10.0,12.0,90,0.00,,,0.00,Wunderground v.1.15,2013-01-06 02:29:00,
2013-01-05 21:35:00,31.7,29.1,30.18,SW,226,9.0,13.0,90,0.00,,,0.00,Wunderground v.1.15,2013-01-06 02:35:00,
2013-01-05 21:41:00,31.8,29.2,30.18,SSW,198,9.0,13.0,90,0.00,,,0.00,Wunderground v.1.15,2013-01-06 02:41:00,
2013-01-05 21:47:00,32.0,29.4,30.18,SSW,212,10.0,13.0,90,0.00,,,0.00,Wunderground v.1.15,2013-01-06 02:47:00,
2013-01-05 21:53:00,32.2,29.3,30.18,SW,232,11.0,14.0,89,0.00,,,0.00,Wunderground v.1.15,2013-01-06 02:53:00,
2013-01-05 21:59:00,32.3,29.4,30.18,SSW,203,10.0,14.0,89,0.00,,,0.00,Wunderground v.1.15,2013-01-06 02:59:00,
2013-01-05 22:05:00,32.3,29.4,30.18,SSW,212,9.0,12.0,89,0.00,,,0.00,Wunderground v.1.15,2013-01-06 03:05:00,
2013-01-05 22:11:00,32.3,29.4,30.17,South,191,9.0,10.0,89,0.00,,,0.00,Wunderground v.1.15,2013-01-06 03:11:00,
2013-01-05 22:17:00,32.4,29.5,30.17,South,177,10.0,11.0,89,0.00,,,0.00,Wunderground v.1.15,2013-01-06 03:17:00,
2013-01-05 22:23:00,32.5,29.6,30.17,SSW,210,11.0,12.0,89,0.00,,,0.00,Wunderground v.1.15,2013-01-06 03:23:00,
2013-01-05 22:29:00,32.5,29.6,30.17,SW,215,11.0,12.0,89,0.00,,,0.00,Wunderground v.1.15,2013-01-06 03:29:00,
2013-01-05 22:34:00,32.5,29.6,30.16,SW,217,10.0,14.0,89,0.00,,,0.00,Wunderground v.1.15,2013-01-06 03:34:00,
2013-01-05 22:40:00,32.4,29.5,30.16,SSW,194,10.0,14.0,89,0.00,,,0.00,Wunderground v.1.15,2013-01-06 03:40:00,
2013-01-05 22:46:00,32.3,29.4,30.16,SW,221,10.0,18.0,89,0.00,,,0.00,Wunderground v.1.15,2013-01-06 03:46:00,
2013-01-05 22:52:00,32.2,29.6,30.16,SSW,200,10.0,14.0,90,0.00,,,0.00,Wunderground v.1.15,2013-01-06 03:52:00,
2013-01-05 22:58:00,32.3,29.7,30.16,SSW,203,9.0,14.0,90,0.00,,,0.00,Wunderground v.1.15,2013-01-06 03:58:00,
2013-01-05 23:04:00,32.4,29.8,30.15,SW,222,10.0,13.0,90,0.00,,,0.00,Wunderground v.1.15,2013-01-06 04:04:00,
2013-01-05 23:09:00,32.5,29.6,30.16,SSW,211,10.0,15.0,89,0.00,,,0.00,Wunderground v.1.15,2013-01-06 04:09:00,
2013-01-05 23:15:00,32.7,29.8,30.16,SSW,195,11.0,11.0,89,0.00,,,0.00,Wunderground v.1.15,2013-01-06 04:15:00,
2013-01-05 23:21:00,32.7,29.8,30.15,SSW,200,10.0,12.0,89,0.00,,,0.00,Wunderground v.1.15,2013-01-06 04:21:00,
2013-01-05 23:26:00,32.8,29.9,30.15,WSW,239,9.0,16.0,89,0.00,,,0.00,Wunderground v.1.15,2013-01-06 04:26:00,
2013-01-05 23:32:00,32.8,29.6,30.15,South,191,9.0,19.0,88,0.00,,,0.00,Wunderground v.1.15,2013-01-06 04:32:00,
2013-01-05 23:38:00,32.9,29.7,30.15,South,172,10.0,19.0,88,0.00,,,0.00,Wunderground v.1.15,2013-01-06 04:38:00,
2013-01-05 23:44:00,33.0,29.8,30.15,SSW,193,10.0,19.0,88,0.00,,,0.00,Wunderground v.1.15,2013-01-06 04:44:00,
2013-01-05 23:49:00,33.0,29.8,30.15,SSW,200,10.0,19.0,88,0.00,,,0.00,Wunderground v.1.15,2013-01-06 04:49:00,
2013-01-05 23:55:00,32.9,29.7,30.15,SW,228,9.0,19.0,88,0.00,,,0.00,Wunderground v.1.15,2013-01-06 04:55:00,